Hourly Data Report for August 02, 2017

TORONTO CITY
ONTARIO

43°40'00.000" N
79°24'00.000" W
112.50 m
6158355
71508
XTO

Download Data

Hourly Data (August 2017)
Hourly Data Report for August 2, 2017
TIME
LST
Temp Definition
°C
Dew Point Definition
°C
Rel Hum Definition
%
Precip. Amount Definition
mm

Wind Dir Definition
10's deg

Wind Spd Definition
km/h
Visibility Definition
km
Stn Press Definition
kPa
Hmdx Definition


Wind Chill Definition


Weather Definition


00:00 22.2 16.7 71 0.0 LegendMM LegendMM   100.29 27   LegendNANA
01:00 21.1 17.7 81 0.0 LegendMM LegendMM   100.28 27   LegendNANA
02:00 20.7 17.4 82 0.0 LegendMM LegendMM   100.23 26   LegendNANA
03:00 20.2 17.6 85 0.0 LegendMM LegendMM   100.24 26   LegendNANA
04:00 19.9 16.9 83 0.0 LegendMM LegendMM   100.26     LegendNANA
05:00 19.5 16.7 84 0.0 LegendMM LegendMM   100.30     LegendNANA
06:00 21.2 17.9 81 0.0 LegendMM LegendMM   100.32 27   LegendNANA
07:00 22.2 17.6 75 0.0 LegendMM LegendMM   100.35 28   LegendNANA
08:00 23.1 18.1 73 0.0 LegendMM LegendMM   100.36 29   LegendNANA
09:00 24.0 17.4 66 0.0 LegendMM LegendMM   100.32 30   LegendNANA
10:00 25.3 17.8 63 0.0 LegendMM LegendMM   100.34 31   LegendNANA
11:00 26.8 18.3 60 0.0 LegendMM LegendMM   100.32 33   LegendNANA
12:00 27.5 18.1 57 0.0 LegendMM LegendMM   100.30 34   LegendNANA
13:00 28.0 18.9 58 0.0 LegendMM LegendMM   100.24 35   LegendNANA
14:00 29.1 17.7 50 0.0 LegendMM LegendMM   100.15 35   LegendNANA
15:00 27.0 18.2 58 0.0 LegendMM LegendMM   100.10 33   LegendNANA
16:00 27.4 15.7 49 0.0 LegendMM LegendMM   100.11 32   LegendNANA
17:00 24.2 14.5 55 0.0 LegendMM LegendMM   100.24 28   LegendNANA
18:00 22.4 18.8 80 1.5 LegendMM LegendMM   100.22 29   LegendNANA
19:00 22.9 17.3 71 0.0 LegendMM LegendMM   100.24 28   LegendNANA
20:00 21.9 17.9 78 0.0 LegendMM LegendMM   100.28 28   LegendNANA
21:00 22.5 17.8 75 0.0 LegendMM LegendMM   100.26 28   LegendNANA
22:00 22.1 18.3 79 0.0 LegendMM LegendMM   100.29 28   LegendNANA
23:00 21.7 17.2 76 0.0 LegendMM LegendMM   100.31 27   LegendNANA

Notes on Data Quality.

Legend

  • E = Estimated
  • M = Missing
  • NA = Not Available*
  • [empty] = Indicates an unobserved value
Date modified: